Theta_e
330 331 331 331 330 330 330 329 329 329 330 329 328 326 325 324 324 323 324 322 319 316 315 314 314 314 312 311 309 307 306 306 305 305 304 302 301 305 313 312 312 313 314 317 317 318 320 320 322 324 325 327 329 332 332 333 333 333 329 329 331 329 329 329 328 326 324 325 325 324 323 323 322 322 323 323 323 323 324 324 323 323 324 324 325
332 331 329 327 328 327 326 325 324 325 327 326 326 327 325 324 324 323 322 320 319 318 317 315 314 313 312 311 310 308 307 307 307 308 306 305 303 301 311 312 312 312 313 314 315 317 319 321 321 321 321 323 324 326 328 330 331 332 332 332 332 332 331 331 331 331 330 327 325 325 324 324 323 323 322 322 322 322 323 323 323 322 322 322 323
327 329 328 328 326 325 324 323 322 322 323 324 323 322 320 318 318 319 319 318 317 318 319 317 315 313 311 310 310 311 311 310 308 307 306 305 304 303 305 312 313 313 313 314 315 314 315 316 317 320 321 321 321 321 322 325 327 329 330 331 331 331 331 331 330 330 330 331 331 326 325 324 323 322 322 321 322 322 322 322 322 322 322 322 321
325 325 325 324 323 321 320 320 319 320 321 322 321 320 319 317 318 319 319 318 318 318 319 319 316 314 311 311 310 311 310 309 308 306 306 305 304 303 302 306 311 313 313 314 313 312 312 314 316 316 317 318 318 319 321 321 323 326 327 328 328 328 328 328 327 327 328 330 330 331 327 324 324 323 322 322 322 322 322 322 322 321 321 321 321
321 321 319 320 320 319 319 318 319 320 320 320 320 321 320 318 318 319 318 319 316 315 317 318 318 314 313 312 310 310 309 308 308 307 305 304 303 302 302 302 303 307 311 313 311 311 311 313 315 315 314 315 317 319 320 321 321 322 323 323 323 323 324 324 324 324 326 328 329 330 330 326 325 324 324 322 321 322 322 322 322 321 321 321 320
320 319 318 316 316 316 317 318 318 319 319 320 319 319 318 318 317 317 315 316 313 312 313 313 313 316 314 312 310 310 310 308 306 305 303 303 302 302 301 301 300 300 302 309 311 310 310 312 313 312 312 313 315 317 318 319 320 320 319 319 319 320 321 321 321 322 323 324 326 326 328 329 327 326 324 323 323 322 322 322 322 321 321 321 320
319 318 317 316 314 313 314 315 317 318 317 317 316 315 314 313 313 316 314 313 312 310 310 309 309 311 312 313 312 312 311 309 306 304 303 302 302 300 300 300 299 300 300 299 304 308 310 309 311 311 312 313 314 315 315 316 317 317 318 318 319 319 320 320 320 321 321 321 321 323 324 326 329 326 324 323 324 324 323 322 322 322 322 321 320
314 314 313 313 312 310 311 311 311 312 311 312 313 312 311 310 308 311 310 307 306 305 306 306 308 309 311 312 311 310 309 306 305 304 303 302 301 300 300 299 299 299 301 298 299 301 308 310 309 309 309 310 312 315 316 316 316 316 317 316 317 317 317 317 318 319 319 319 319 320 321 323 325 327 327 325 324 324 323 323 323 323 321 321 321
311 310 310 309 308 308 308 308 308 308 307 307 308 309 307 305 303 304 305 302 302 302 303 307 306 308 308 311 311 309 305 303 303 303 304 301 299 299 299 299 299 302 298 298 300 300 303 307 308 308 309 309 309 312 313 315 316 317 318 318 318 317 316 316 316 316 317 317 317 318 319 320 321 323 325 328 324 324 323 323 324 323 322 321 321
307 308 307 306 306 305 305 306 306 306 306 307 308 309 308 305 303 303 303 302 302 301 301 302 304 306 306 309 309 304 302 302 302 301 300 299 299 298 299 298 299 299 299 299 300 299 299 301 304 305 305 307 308 310 312 312 313 315 316 317 318 318 318 317 316 316 315 316 316 317 318 319 319 320 321 324 326 325 324 323 323 323 322 321 321
304 305 305 304 304 303 303 303 304 303 303 303 303 304 305 305 304 303 304 302 300 300 299 299 301 303 305 306 302 301 301 300 301 300 298 298 299 299 298 296 297 297 297 298 298 298 297 296 296 297 298 306 306 308 309 310 310 312 315 316 316 316 317 318 318 317 317 316 316 316 316 317 318 319 320 320 323 325 325 324 324 323 323 322 322
301 302 302 301 301 301 301 301 301 301 300 300 300 300 301 301 301 300 298 298 297 297 297 297 298 299 302 303 300 300 300 299 299 299 298 298 298 294 292 292 293 295 294 294 296 296 294 294 295 296 297 300 305 306 306 307 306 310 312 313 315 316 316 316 317 316 317 317 317 317 317 317 317 318 319 320 320 321 324 325 325 324 323 322 322
299 299 299 300 299 298 298 298 298 298 298 298 298 298 299 300 299 298 296 293 293 295 295 297 296 295 298 299 299 299 297 298 299 298 298 297 295 293 291 291 291 293 292 292 292 293 292 292 293 294 295 295 297 302 305 305 305 307 309 309 313 315 315 316 317 315 315 315 316 316 317 317 317 317 318 319 320 320 321 323 325 325 324 324 323
296 297 297 297 297 296 296 296 296 296 296 296 295 296 296 296 297 296 295 292 290 292 294 294 292 291 292 295 295 297 295 294 297 297 297 296 294 293 292 291 291 291 292 291 291 291 291 291 291 293 294 295 296 297 297 298 300 305 306 305 308 309 310 310 311 310 311 313 313 314 315 316 316 317 318 318 318 319 320 322 322 324 325 324 324
293 294 294 294 294 293 293 293 292 293 292 292 292 292 292 293 293 293 293 293 290 292 291 291 288 290 293 295 292 292 295 290 291 294 295 294 294 292 292 290 290 291 291 291 290 291 292 290 290 291 293 294 295 295 296 298 299 302 304 303 306 307 309 309 310 309 309 308 309 311 312 313 314 316 317 317 318 318 318 319 321 322 323 324 324
291 291 291 291 291 290 290 290 290 290 289 289 289 289 290 290 291 291 291 291 289 288 290 290 290 289 286 289 291 290 285 285 286 290 289 293 294 291 290 289 289 290 291 290 291 291 290 289 289 290 292 293 294 294 296 296 298 299 300 300 302 305 306 308 309 308 308 308 309 308 308 309 311 312 313 314 316 317 318 318 318 320 321 322 323
290 290 290 290 290 289 289 289 289 289 288 288 288 288 289 289 289 289 289 288 287 287 288 289 288 290 289 285 283 284 283 283 284 287 287 289 287 290 289 289 289 289 291 288 289 291 289 289 289 290 291 292 292 293 294 295 296 297 297 298 301 301 303 305 307 308 308 307 308 309 308 307 307 308 310 312 313 314 315 317 318 318 318 320 321
288 289 289 289 289 289 288 288 288 288 288 288 287 288 288 288 288 287 288 288 286 285 285 287 288 288 289 288 288 283 282 284 281 278 284 287 285 287 287 288 287 288 291 288 288 290 290 289 289 290 291 292 292 292 292 293 295 295 296 299 301 301 301 303 305 307 308 307 307 308 308 308 308 307 307 308 310 312 314 315 315 316 317 318 319
287 287 287 288 287 287 287 287 287 287 287 287 287 286 287 287 288 287 286 288 286 284 284 285 285 286 287 287 287 288 288 283 280 281 277 280 283 284 285 286 286 287 288 287 288 289 289 289 289 290 291 292 292 292 292 293 296 298 300 302 301 300 300 300 302 304 306 307 307 307 308 307 307 307 308 308 308 309 311 313 315 315 316 316 317
287 286 287 287 286 286 286 286 286 286 286 286 286 285 286 286 287 287 286 286 286 286 285 285 284 285 287 287 286 285 285 286 285 282 281 278 279 282 283 285 285 286 286 286 287 287 287 288 288 289 290 291 292 290 291 292 292 292 295 301 301 301 300 299 299 300 301 304 306 306 307 308 308 308 308 308 308 308 308 310 312 314 315 315 316
286 286 286 286 286 285 285 284 285 285 285 285 285 286 285 285 285 285 285 286 286 286 286 286 285 285 285 285 285 284 283 283 282 282 280 277 277 279 280 282 283 285 286 286 287 288 287 287 288 288 289 289 290 289 290 290 290 291 296 300 300 301 300 299 299 299 299 300 301 303 305 306 307 307 308 308 307 307 308 308 308 310 313 315 315
285 285 285 285 285 285 285 284 284 284 285 284 284 284 284 284 284 285 285 284 284 285 284 284 285 284 283 283 282 281 280 280 279 279 279 280 278 278 279 279 279 281 285 285 286 286 287 287 287 288 288 288 288 287 288 289 289 294 295 298 297 297 297 298 298 298 298 298 298 299 300 302 305 306 306 307 307 308 308 308 308 309 310 312 315
284 285 285 285 285 285 284 284 284 284 284 283 283 283 284 283 284 283 283 283 282 282 283 283 283 282 282 281 281 281 281 279 278 279 279 277 277 278 279 280 280 280 281 284 285 285 286 287 287 288 288 289 288 288 287 288 291 294 296 295 295 295 295 296 296 297 297 297 298 298 300 300 301 303 305 307 307 308 308 309 308 308 308 308 310
283 283 283 284 284 284 284 283 283 283 283 283 284 284 284 283 283 282 282 282 282 282 281 281 281 281 280 281 280 282 282 281 281 281 280 279 279 277 277 279 278 279 282 282 284 284 286 286 287 288 288 288 287 288 287 289 289 293 291 292 293 294 294 295 297 296 296 296 297 298 298 299 299 300 302 304 306 307 308 308 308 308 307 308 307
282 282 283 283 283 283 283 282 283 284 283 283 283 283 282 282 282 281 281 281 281 280 280 279 280 279 279 280 280 281 281 281 282 281 281 280 279 276 277 278 277 278 279 281 280 282 285 284 287 288 287 286 287 287 287 287 285 290 291 289 292 293 293 293 294 295 296 296 297 297 297 297 299 299 300 301 302 304 306 308 308 308 308 308 308
282 282 283 283 283 283 283 283 283 282 282 282 282 282 281 281 280 279 279 279 279 279 279 279 279 279 279 278 279 280 280 281 279 281 280 279 277 277 277 277 277 277 278 277 279 280 279 284 285 286 285 285 286 285 285 285 284 289 291 289 288 291 291 292 293 294 295 296 296 296 296 295 296 298 299 300 301 301 302 304 306 308 308 308 309
282 283 283 283 283 283 282 282 282 281 281 281 282 280 280 280 280 279 279 279 278 279 278 279 280 278 278 278 279 279 279 279 279 280 280 280 279 278 277 275 275 276 275 277 276 278 279 281 283 283 284 285 285 284 284 284 286 290 290 286 284 289 290 291 292 294 295 294 294 294 295 295 296 297 298 299 300 300 300 302 303 304 305 306 306
283 283 283 282 282 281 281 281 281 280 280 279 279 279 279 279 278 278 279 281 279 279 279 278 279 279 279 279 278 278 278 279 279 279 279 280 280 279 278 276 275 273 275 274 275 275 279 278 280 282 282 283 284 283 286 286 284 289 288 284 283 284 289 290 292 293 293 293 293 294 294 295 295 296 296 296 297 297 298 300 300 301 302 302 303
283 282 282 281 281 280 280 280 279 280 280 280 280 280 280 278 279 278 277 278 279 279 279 278 278 278 278 278 278 278 278 278 278 279 279 278 279 278 278 277 277 274 272 272 274 274 276 278 278 279 282 283 283 284 283 283 286 286 284 283 283 282 287 289 290 291 291 292 293 293 293 293 294 294 295 295 296 296 297 297 297 298 299 300 300
282 282 280 280 280 281 279 279 279 279 279 279 279 279 279 278 278 278 277 277 277 277 278 277 278 277 278 277 277 278 277 277 278 278 278 278 278 278 278 278 277 275 275 273 274 276 276 278 279 279 280 281 282 283 283 282 286 285 284 283 282 282 287 288 288 289 290 291 291 291 291 292 293 293 294 294 295 296 297 297 297 298 298 299 301
281 280 279 279 279 279 278 278 278 278 278 278 278 279 277 277 277 277 277 277 276 276 277 277 278 278 277 276 276 276 276 277 277 277 277 277 278 277 277 278 278 276 276 274 273 275 277 276 277 279 279 279 281 281 282 282 284 285 282 282 282 285 285 284 285 287 288 288 289 290 291 292 292 293 293 294 295 296 297 297 297 297 298 299 300
280 279 279 278 278 278 278 278 277 277 277 278 278 278 276 276 276 276 277 276 275 275 275 276 278 278 276 276 275 276 276 276 276 276 276 277 277 278 277 277 276 276 276 276 274 274 278 277 278 278 279 279 279 279 279 281 283 285 281 281 281 284 281 281 284 285 286 287 288 289 290 292 292 293 293 293 294 295 295 296 296 296 297 298 299
279 279 278 278 277 277 277 277 277 277 277 276 277 276 276 275 275 276 276 275 275 274 275 274 275 276 276 275 275 275 276 276 276 276 276 276 276 277 277 277 277 276 275 275 273 274 276 277 277 277 278 278 278 278 278 278 279 279 282 280 280 280 280 280 280 283 284 286 287 289 290 291 292 291 291 291 291 293 293 294 294 294 296 297 297
279 279 278 278 277 277 277 277 276 276 276 276 275 275 275 275 275 278 277 274 274 274 274 274 274 276 275 274 275 274 275 276 275 274 275 275 275 275 275 276 274 275 275 275 274 273 272 275 275 276 276 277 276 277 277 277 277 278 278 278 279 279 279 279 279 279 284 285 287 287 288 288 288 289 289 288 290 291 292 293 293 294 295 295 295
278 279 278 278 277 277 276 277 276 275 275 275 275 274 274 274 274 274 275 274 274 274 273 273 274 274 274 274 273 274 276 274 274 274 274 274 274 274 274 274 274 274 274 274 273 272 272 273 275 274 275 276 276 276 276 277 277 277 276 276 277 278 278 278 278 279 283 284 285 286 286 286 287 287 287 287 288 288 289 290 290 291 293 294 294
278 278 277 277 277 276 276 275 275 274 275 274 274 274 275 274 274 274 274 273 273 273 274 273 273 274 273 273 273 273 273 273 273 273 273 273 273 273 273 273 273 273 274 274 274 273 273 272 274 274 275 274 275 275 276 276 275 275 275 276 276 276 276 277 277 277 280 283 284 284 284 285 285 286 286 287 288 289 289 289 290 290 291 292 293
277 277 276 275 275 276 276 275 275 274 274 274 274 274 274 274 274 274 273 273 273 273 273 273 277 274 273 273 273 273 273 272 272 272 273 272 273 273 273 273 273 274 274 274 273 273 272 272 272 274 274 274 274 274 274 273 274 274 275 274 275 275 275 276 277 278 280 282 282 282 282 283 284 284 285 287 287 287 288 288 288 289 289 289 289
276 276 275 275 275 274 274 274 274 273 273 273 274 274 274 274 274 273 273 273 273 274 273 274 274 274 274 273 273 273 273 272 273 272 272 272 272 272 272 272 273 273 273 273 273 272 272 272 272 271 273 272 272 272 273 273 273 272 273 274 274 274 274 274 275 276 277 277 277 278 280 280 282 283 284 285 286 285 286 286 286 287 286 286 287
276 275 274 274 274 274 274 274 274 274 273 274 273 274 274 273 273 272 272 273 273 273 274 274 274 273 273 273 273 273 273 273 272 272 272 272 271 271 272 272 272 272 272 272 272 271 271 271 271 271 271 272 271 270 272 273 273 272 271 271 271 273 273 273 273 275 276 276 278 280 280 280 281 281 282 283 284 285 285 285 286 285 284 285 286
275 275 275 275 274 274 274 274 273 273 273 273 273 273 273 272 272 272 273 273 273 274 274 274 274 273 273 273 273 273 273 273 273 273 273 272 272 272 272 272 272 272 271 271 271 271 270 270 270 269 270 270 270 271 272 272 271 271 272 271 270 270 271 273 273 273 275 275 275 275 278 279 279 280 281 282 282 283 284 284 283 283 283 284 285
277 276 276 275 274 273 273 273 273 273 273 273 273 272 272 273 273 274 274 274 274 273 273 273 273 273 273 273 274 273 274 277 279 278 278 278 273 271 272 272 270 271 270 269 270 271 271 270 270 270 270 269 269 269 269 269 269 269 271 271 270 271 272 272 273 274 275 274 275 275 275 276 276 276 276 276 277 280 280 282 281 282 282 284 286
277 276 276 274 273 273 273 272 272 273 273 273 276 278 277 273 272 274 274 273 273 273 273 272 273 273 274 274 275 278 278 279 279 279 279 279 279 277 275 273 271 270 270 271 271 271 270 269 269 269 268 268 269 270 269 270 271 271 271 271 270 271 271 271 272 273 275 274 274 273 275 276 276 276 276 276 277 279 278 278 278 280 283 285 286
276 275 275 274 273 273 273 272 272 273 273 273 277 278 278 279 275 273 272 272 273 272 272 272 272 273 273 274 273 275 277 278 276 278 278 278 278 278 278 278 278 275 273 272 271 271 270 269 270 269 269 269 270 271 270 271 271 271 270 271 271 271 270 269 268 272 275 275 274 273 274 276 276 275 275 276 277 277 278 277 281 283 284 285 285
275 274 273 272 272 272 272 272 271 272 272 276 278 278 279 279 279 275 272 272 272 273 272 272 272 272 272 273 273 274 273 273 272 272 274 276 277 277 277 277 277 278 278 275 272 271 271 270 270 270 270 270 270 271 271 272 271 272 272 272 271 271 271 270 271 270 275 276 274 273 273 276 277 275 275 276 277 277 278 280 283 283 284 284 285
273 272 272 272 271 271 271 271 270 271 271 277 278 279 279 279 279 278 273 275 274 273 273 272 272 272 272 272 272 273 272 275 274 272 271 271 275 276 276 276 276 276 276 277 277 275 274 272 271 271 271 271 271 271 273 273 274 272 272 272 272 272 272 272 272 272 274 277 275 273 273 275 276 275 274 276 276 277 277 280 282 283 284 284 284
272 271 270 271 271 271 271 270 270 270 270 275 278 279 279 279 279 278 274 275 274 274 274 273 273 272 272 272 271 270 270 270 271 271 271 270 270 270 270 269 270 273 275 276 276 276 276 273 272 271 273 273 272 273 274 275 273 272 272 271 273 272 272 272 274 274 276 277 275 274 272 274 276 275 274 275 276 276 276 279 282 283 283 284 284
272 271 271 270 270 270 269 269 269 269 270 275 277 278 278 278 278 278 275 275 274 274 274 274 274 273 272 271 270 270 270 270 271 272 271 271 269 270 271 271 272 273 273 273 273 273 274 274 274 274 274 275 274 275 275 275 275 275 274 274 274 274 274 275 275 276 276 277 276 275 270 274 276 274 274 274 275 275 275 279 281 282 283 283 283
269 269 268 269 269 269 269 268 268 268 268 276 276 277 278 278 278 275 274 273 273 273 273 273 273 272 270 270 269 269 269 269 272 275 275 273 272 272 272 273 273 273 274 276 278 278 276 276 276 276 276 276 277 276 276 277 277 277 277 277 276 275 274 273 272 274 274 276 277 275 272 273 275 273 273 275 275 274 275 275 279 282 282 282 283
271 270 270 269 269 268 268 267 267 267 265 272 276 277 277 278 276 272 273 272 272 271 271 270 270 270 270 270 270 269 269 269 273 275 276 276 273 273 273 272 273 273 274 275 278 280 280 281 281 281 282 282 282 282 282 282 279 278 275 273 271 272 271 270 271 272 273 275 276 276 274 272 274 273 272 274 274 274 274 275 276 279 281 282 282
271 270 269 268 267 267 267 267 267 265 265 270 274 275 276 277 276 272 271 270 269 270 270 271 271 270 270 273 273 272 271 271 274 276 277 276 274 274 274 273 273 273 274 275 276 277 279 280 280 280 280 280 280 280 280 279 279 278 274 271 273 273 272 272 270 271 272 273 275 277 273 272 274 274 272 273 274 274 275 275 276 277 280 280 281
270 268 268 267 266 265 265 266 269 267 264 268 273 275 276 276 275 273 271 270 269 269 269 269 270 270 271 272 273 274 273 273 276 277 278 277 275 275 274 274 273 272 274 275 275 274 274 274 274 274 274 275 274 273 273 277 277 277 274 273 273 271 270 270 270 270 269 271 275 277 272 272 273 274 273 271 270 273 275 275 275 276 276 275 276
Wind_Speed
3 6 6 6 4 5 5 5 6 5 4 5 4 5 4 5 4 4 4 2 3 4 2 3 5 5 4 4 3 3 3 4 4 4 3 3 2 3 6 7 8 9 10 10 10 10 10 10 9 9 11 12 13 15 15 15 15 16 8 9 13 11 13 8 7 5 5 5 5 5 4 3 3 3 5 5 5 3 3 4 5 6 7 7 7
5 6 7 6 6 7 7 7 7 6 7 6 5 5 5 5 5 6 6 5 5 4 2 3 5 4 5 4 4 4 4 4 4 5 5 5 3 2 5 5 7 10 12 12 13 13 13 13 12 11 10 10 11 12 13 13 16 15 15 15 17 16 14 16 14 13 12 9 8 7 6 6 5 5 5 6 3 3 3 4 6 6 7 7 7
6 6 5 6 7 7 6 6 6 6 5 5 5 5 6 5 5 5 4 4 5 4 5 2 4 5 4 3 3 5 5 5 5 5 5 5 5 3 2 4 6 7 11 13 15 16 16 15 15 14 14 14 13 12 11 11 13 13 14 15 15 15 14 15 13 13 12 15 14 10 8 6 5 6 6 5 3 4 4 5 5 6 5 7 8
7 7 7 7 7 7 5 6 5 5 5 4 5 6 6 5 4 3 3 4 5 5 5 3 4 4 4 3 3 5 3 4 5 5 4 5 6 7 4 3 5 7 9 12 15 17 17 16 15 15 15 16 15 15 13 12 11 12 13 14 14 15 15 16 16 15 16 15 15 16 11 7 6 6 6 6 6 7 7 7 6 4 5 6 8
7 7 7 7 6 6 5 6 5 4 4 4 4 4 5 5 3 3 5 5 5 5 5 4 4 3 4 1 3 3 2 4 5 5 5 5 6 7 7 7 5 7 8 9 14 17 16 15 16 15 16 16 16 15 15 14 14 14 15 15 15 14 15 15 15 15 16 16 17 17 15 8 7 8 9 5 6 8 8 7 7 4 5 7 7
6 6 6 7 6 5 6 5 4 4 4 5 6 5 4 3 4 5 5 5 4 4 4 6 5 4 2 2 3 2 0 5 5 6 4 5 6 7 7 6 6 7 5 7 10 14 16 16 15 15 16 16 16 16 16 16 16 15 15 16 16 16 16 16 16 16 16 16 16 17 16 14 11 11 8 6 9 9 8 9 6 7 8 9 7
5 6 7 6 6 6 6 6 5 4 5 6 6 6 6 6 5 3 5 4 4 5 5 3 4 4 4 5 4 4 3 6 6 5 5 6 7 7 6 7 7 6 6 6 7 10 13 15 15 14 16 17 16 16 16 15 16 15 16 16 16 16 16 16 16 15 15 15 16 16 17 16 18 11 7 9 11 12 12 8 8 9 10 12 8
8 8 7 7 7 7 6 7 6 5 7 7 6 6 6 6 6 6 6 6 5 5 4 4 3 2 3 3 2 2 6 6 5 6 7 7 6 6 6 6 6 6 6 6 7 7 13 12 16 13 15 17 17 17 17 17 16 16 15 15 15 15 15 15 16 15 15 15 15 16 16 16 16 17 14 13 10 11 11 9 10 10 13 10 9
8 8 7 7 6 6 6 6 5 6 7 6 6 6 6 6 7 7 5 4 5 5 5 5 5 3 3 3 1 5 7 6 6 6 6 6 6 5 5 5 4 6 5 6 6 7 9 14 15 15 11 16 17 16 17 17 17 17 18 18 17 17 16 16 15 15 15 15 15 16 16 16 16 16 16 17 15 12 11 10 11 12 13 11 10
6 5 6 6 6 6 5 4 4 5 6 5 6 5 5 5 6 6 6 6 6 6 6 7 5 4 4 1 6 7 6 6 6 6 7 6 7 7 7 6 5 5 6 5 6 7 7 9 12 11 13 15 17 17 17 17 16 18 19 18 18 19 19 18 17 16 16 16 16 16 16 16 16 16 15 15 16 15 13 13 13 13 13 13 12
8 8 7 7 7 8 8 8 7 8 7 7 7 6 6 6 5 6 7 8 6 5 5 5 4 4 3 2 8 6 5 6 7 7 7 6 8 8 7 7 6 7 8 7 7 7 8 7 7 7 7 13 16 18 17 17 17 19 18 18 18 19 19 19 19 19 18 18 17 16 16 17 17 17 16 16 15 16 16 14 13 14 13 13 12
8 7 8 7 7 7 7 7 7 7 7 8 7 7 6 6 9 8 7 6 7 7 7 6 4 3 2 5 6 6 5 7 7 7 7 7 7 7 8 7 7 7 8 7 7 6 8 7 7 7 7 8 12 14 16 17 18 17 17 19 18 18 18 19 20 20 20 20 19 18 18 17 17 17 17 17 16 15 15 16 17 16 14 13 14
8 8 8 8 8 7 7 7 6 7 8 7 7 7 8 6 6 7 7 8 9 9 10 4 7 6 7 7 7 5 8 6 7 7 7 7 7 7 7 7 7 6 7 7 6 6 7 8 7 7 7 7 7 10 11 10 13 16 17 19 18 19 19 19 20 20 20 21 21 21 20 19 18 18 18 18 18 17 17 15 16 19 19 16 15
8 8 8 7 7 7 7 7 7 7 7 7 8 8 10 9 5 5 7 8 8 8 9 6 6 3 2 3 4 5 7 7 6 5 6 5 6 6 6 7 7 6 5 7 6 5 6 6 6 7 7 7 7 7 7 6 8 14 15 18 18 19 19 20 20 21 21 21 20 20 20 21 21 20 19 19 19 19 19 19 18 16 18 20 18
9 9 8 8 8 8 8 7 8 7 8 9 9 10 9 9 8 5 5 5 6 7 9 7 3 3 2 4 2 2 2 6 5 5 4 5 5 6 6 7 7 6 4 6 6 6 6 6 6 6 6 7 6 6 6 5 7 9 12 16 17 18 20 20 21 21 21 21 20 20 20 20 20 20 20 20 20 20 20 19 19 20 19 18 20
9 9 8 9 9 9 8 8 8 8 8 9 10 10 10 10 10 10 5 4 5 8 8 10 8 6 5 1 2 3 3 4 5 2 4 4 6 5 5 7 7 7 4 7 6 5 6 7 6 5 6 6 5 5 5 5 7 7 8 10 13 16 19 20 22 22 22 22 21 20 20 20 20 20 20 20 20 21 20 20 20 20 20 21 19
9 9 9 9 8 8 8 8 8 8 8 9 9 8 8 7 8 8 8 5 6 4 7 9 10 8 3 4 5 5 1 3 4 3 6 4 6 4 5 7 6 7 5 7 7 5 6 7 7 6 5 6 5 5 5 5 5 3 4 7 10 15 17 20 22 23 23 23 22 21 21 20 20 20 20 20 20 21 21 21 20 20 20 20 20
8 8 8 7 8 8 8 8 8 8 8 7 7 8 9 9 8 7 9 8 5 7 7 7 7 9 8 5 2 3 0 4 5 3 6 1 5 4 4 5 4 5 4 5 6 5 6 6 7 7 6 5 5 5 4 5 5 3 2 5 12 13 16 20 22 22 23 23 22 22 21 21 21 21 21 20 20 20 21 21 21 21 20 20 20
8 8 8 8 7 8 8 8 8 8 7 8 9 8 7 7 7 8 7 7 7 8 7 6 5 7 7 6 6 3 1 2 1 2 4 5 4 4 3 5 4 4 4 4 5 4 5 5 6 7 7 6 5 5 6 6 6 6 5 7 10 12 15 19 21 21 22 22 23 23 23 22 22 22 22 22 21 21 21 21 21 21 21 20 20
8 8 8 8 8 8 8 8 8 7 7 7 7 6 7 7 7 7 7 7 7 6 5 6 6 5 6 7 7 7 4 3 3 2 3 5 6 5 3 6 6 5 4 5 5 4 5 6 6 6 6 6 4 5 6 6 6 6 5 9 11 14 17 21 21 20 21 21 22 23 23 23 23 23 22 22 22 21 21 21 21 21 21 21 21
8 8 7 7 7 7 7 8 8 7 6 7 7 7 7 7 8 8 7 7 7 6 6 5 6 4 5 6 5 6 5 4 4 6 1 2 5 3 6 3 3 5 6 6 5 6 6 6 6 5 5 6 4 4 5 6 6 6 4 9 13 17 22 23 22 21 20 20 21 22 23 23 23 23 24 24 23 22 21 21 21 21 21 21 21
7 7 7 7 7 7 8 8 7 6 6 6 5 7 6 7 7 7 7 7 6 6 5 4 4 4 4 3 4 4 5 4 3 5 3 1 3 7 5 9 8 4 6 5 7 8 8 6 6 5 6 6 4 4 4 5 6 4 5 10 15 21 23 22 22 22 21 21 21 22 22 22 23 24 24 25 24 23 22 22 21 21 21 21 22
6 6 6 5 6 6 7 6 6 6 7 6 7 6 7 7 6 6 7 7 6 6 6 5 5 5 5 6 4 3 1 1 3 3 1 2 4 5 6 5 6 10 3 6 8 8 7 6 5 6 5 6 5 4 5 5 6 4 8 13 18 20 21 21 22 22 21 22 23 23 23 22 22 23 24 25 25 24 24 23 22 22 22 22 22
6 6 6 5 6 6 6 6 7 7 7 6 6 6 5 5 5 6 6 5 5 6 5 5 6 5 5 5 4 3 4 4 3 3 4 4 3 6 6 5 4 4 6 6 7 8 5 7 6 5 6 5 4 5 6 5 6 10 11 13 15 17 20 22 22 22 22 22 22 23 23 23 23 24 24 25 25 25 25 25 24 24 23 23 22
6 7 5 5 5 7 6 6 6 6 5 4 4 4 4 5 5 4 5 4 4 4 5 4 4 4 4 4 4 5 4 3 5 3 5 3 4 5 4 4 7 7 5 4 3 3 7 6 4 3 4 4 4 5 5 6 7 12 17 11 13 15 20 21 22 22 23 22 23 23 23 24 25 25 25 25 25 25 25 25 25 25 25 24 23
6 5 4 4 5 5 5 5 4 4 4 4 4 4 4 5 4 5 4 4 4 4 4 3 3 4 3 5 4 5 4 3 4 4 4 4 4 4 6 4 4 8 3 2 3 4 3 4 6 6 7 5 4 5 7 7 7 10 13 9 9 14 19 20 22 22 22 22 23 24 24 25 25 25 26 26 26 26 25 25 25 25 25 25 24
6 5 5 5 5 5 5 5 5 5 4 4 4 4 4 4 4 4 3 3 4 4 3 3 3 4 4 4 5 5 3 3 4 4 3 4 3 4 4 9 5 3 4 3 3 1 6 4 3 7 4 4 6 6 6 5 7 11 12 7 6 9 15 20 21 21 22 24 26 26 25 25 24 25 25 25 26 26 25 25 26 25 26 25 25
6 5 4 5 5 5 5 5 4 4 4 4 4 3 2 4 3 3 2 1 0 1 1 2 1 1 1 1 3 4 4 2 3 4 4 4 4 4 4 3 5 9 6 6 2 5 2 4 3 2 5 6 5 5 7 8 6 10 10 6 6 6 11 18 21 23 25 25 25 24 24 24 24 25 25 25 25 25 26 26 26 27 26 26 26
6 5 5 5 5 5 5 5 4 4 3 3 1 0 0 3 4 4 3 3 1 2 1 1 2 2 2 1 2 4 4 2 3 3 3 4 3 3 4 3 3 4 6 6 8 5 4 3 4 3 9 12 11 7 7 6 8 11 7 5 5 5 10 20 22 23 23 23 23 23 23 24 25 25 25 25 25 25 26 26 26 26 26 26 26
6 5 5 5 5 5 5 4 3 3 3 3 2 1 1 3 4 4 3 2 3 2 1 2 1 2 2 3 3 3 3 3 3 4 4 3 3 3 3 4 3 4 3 6 9 3 7 2 2 6 5 8 10 12 10 10 9 12 8 7 7 6 17 21 21 21 21 22 23 24 24 25 25 25 25 25 26 26 26 26 26 27 27 27 28
6 6 5 5 4 4 4 4 4 4 3 2 1 1 3 4 4 4 2 1 2 2 2 2 1 1 2 2 3 2 2 2 3 4 4 4 5 3 4 3 4 3 5 4 8 3 1 9 5 5 9 6 7 9 9 10 11 12 9 9 10 14 19 13 17 19 20 23 24 25 25 25 25 25 25 25 26 26 26 27 27 27 27 27 28
5 5 4 4 4 4 4 4 4 4 4 2 2 2 4 3 4 3 1 2 2 2 2 2 1 1 1 2 3 3 3 2 3 4 4 4 4 4 4 4 4 3 4 5 7 13 8 6 9 6 8 10 8 10 11 7 7 12 12 11 11 13 10 10 12 18 21 23 23 23 24 23 24 23 23 24 25 27 28 28 28 28 28 28 27
5 4 4 4 4 4 4 4 4 4 4 3 2 3 3 3 3 3 1 2 2 2 2 3 3 2 2 2 3 4 3 2 3 3 4 4 4 4 4 4 5 3 3 4 7 12 12 5 6 7 6 9 9 6 9 9 9 9 9 10 10 9 9 9 11 15 21 22 23 22 22 22 25 26 27 27 27 27 27 27 27 27 27 27 27
5 5 5 4 4 4 4 4 4 4 4 4 3 3 3 3 2 2 1 1 2 2 2 2 3 3 2 3 4 4 3 2 3 3 4 4 4 4 3 3 4 5 4 4 6 7 14 12 8 6 6 6 9 5 8 12 10 9 12 10 7 7 9 10 11 11 20 22 21 22 24 26 25 25 25 25 26 26 26 26 26 26 26 26 26
4 5 5 5 5 5 5 4 4 4 4 3 2 3 3 3 1 1 2 1 1 1 2 2 2 2 2 3 4 4 3 3 4 4 3 4 4 3 4 3 4 4 4 3 4 8 11 13 11 9 7 6 8 9 7 8 10 9 11 11 10 9 9 10 10 9 15 21 25 25 24 23 23 24 25 25 25 25 26 26 27 28 27 27 27
6 5 5 5 5 5 5 5 4 4 4 3 3 3 2 1 1 1 1 1 1 1 1 2 2 2 2 3 3 3 3 3 4 3 4 3 3 4 4 4 3 5 4 4 4 6 9 12 14 9 8 8 9 7 7 8 9 9 8 11 11 11 10 9 9 9 12 22 23 23 23 23 24 24 24 24 23 23 24 24 25 25 25 26 26
5 6 4 4 5 5 6 5 4 4 4 3 2 1 1 0 0 1 2 1 1 2 2 2 3 2 2 3 3 3 3 4 4 4 4 4 4 3 4 5 5 5 4 4 5 5 8 11 13 10 7 8 8 9 7 9 10 8 8 10 11 11 11 10 8 8 15 20 19 20 21 23 23 23 23 23 23 23 25 27 27 27 27 28 27
6 5 6 4 5 5 5 5 4 4 3 2 1 1 0 0 0 1 1 2 2 2 3 3 3 3 3 3 3 3 4 4 5 4 4 4 4 4 4 5 5 4 4 4 5 6 7 10 10 13 10 8 10 9 6 7 9 11 11 9 9 8 9 12 10 8 7 7 7 8 12 15 18 22 22 21 23 26 26 26 26 27 27 27 28
8 7 5 5 4 5 5 4 4 4 2 1 1 1 1 1 2 3 2 2 2 2 2 3 3 3 3 3 4 4 4 4 5 5 5 5 3 3 3 4 5 5 6 5 5 6 7 9 10 9 11 9 6 11 9 6 8 8 10 11 12 9 8 10 13 9 7 9 10 15 15 15 18 16 19 22 24 24 25 25 25 26 26 27 28
7 7 7 7 5 4 5 4 4 3 2 1 1 2 2 2 2 3 2 3 3 2 2 3 3 3 3 4 4 4 4 5 5 5 5 5 4 5 4 4 5 6 6 5 6 6 7 8 8 10 8 10 9 7 8 8 8 6 5 8 13 13 12 11 10 11 10 9 11 8 8 10 11 13 17 19 21 24 25 23 23 24 25 25 26
6 7 7 6 7 5 4 4 4 4 4 2 2 2 1 1 0 1 1 1 2 2 3 3 3 3 4 4 4 4 5 7 10 9 8 7 5 5 5 4 4 5 5 5 5 7 8 8 10 9 10 10 8 9 10 8 8 10 10 9 11 11 11 13 12 8 8 11 11 10 7 6 10 9 9 10 11 18 17 20 18 21 23 24 25
7 7 7 5 6 6 6 5 4 4 3 2 3 5 4 3 2 2 1 2 2 3 3 3 3 3 4 4 5 9 12 13 13 14 14 14 14 10 7 4 4 5 6 7 7 6 8 10 11 11 11 12 10 10 10 10 9 9 10 10 11 12 12 13 12 7 8 9 10 12 9 6 9 11 10 12 10 10 10 11 10 15 21 26 26
8 7 7 7 5 5 6 5 5 5 4 3 7 8 8 9 5 3 2 2 2 3 3 4 5 4 4 5 5 6 7 8 7 11 14 14 13 14 15 15 13 9 7 7 7 7 8 9 10 11 12 16 15 12 12 12 11 9 9 10 10 11 11 12 15 12 4 6 11 12 13 6 9 13 12 11 10 9 10 11 20 25 26 26 27
7 6 6 6 6 5 5 5 5 5 4 7 10 9 9 9 7 4 2 2 2 3 3 4 4 4 5 4 4 3 4 4 4 4 6 11 14 15 15 15 15 16 15 10 9 8 7 9 10 9 11 13 16 13 13 13 12 12 11 10 11 12 13 14 12 13 9 9 13 14 17 10 9 12 12 10 10 10 10 16 25 27 28 27 27
6 6 7 7 6 5 6 6 5 4 4 8 10 10 10 9 9 6 2 2 2 3 4 4 4 4 4 5 5 4 3 7 5 4 4 5 9 14 14 14 12 13 13 16 16 12 10 11 11 14 14 14 16 14 11 12 16 16 14 15 12 12 13 15 15 13 14 10 13 12 16 12 9 13 12 9 9 9 10 14 21 25 27 28 27
6 5 5 6 6 6 6 6 5 4 4 7 10 10 10 9 8 6 2 4 5 5 5 5 4 4 4 5 5 4 3 3 4 5 4 5 5 4 4 4 5 10 16 19 20 21 19 14 14 16 17 13 15 15 16 16 16 15 14 15 13 13 14 16 16 15 14 10 11 13 17 13 9 12 12 9 7 9 8 12 23 26 27 27 26
8 9 8 7 6 6 5 5 6 5 5 8 10 10 9 9 8 7 3 4 5 6 6 6 6 5 4 4 4 5 4 4 4 6 6 6 5 5 6 7 9 10 10 11 12 12 13 13 15 16 17 17 16 17 17 13 13 14 13 16 16 15 16 18 17 14 12 8 11 10 15 12 8 12 12 11 9 8 7 13 22 24 25 25 26
4 4 4 4 6 7 6 5 5 6 4 9 9 9 10 9 9 3 3 5 6 6 6 7 6 4 3 4 4 5 4 4 7 13 11 8 6 7 9 10 10 10 10 11 18 19 16 14 12 12 12 14 18 16 15 13 12 12 12 12 12 11 13 13 14 10 11 6 7 8 12 13 9 15 14 9 9 10 9 9 14 23 24 25 25
7 7 8 7 6 6 6 6 6 5 4 7 9 10 10 10 7 2 4 4 5 5 5 4 4 5 5 4 5 5 5 4 9 13 14 13 8 9 11 11 10 10 11 11 17 23 24 26 27 27 28 28 28 29 29 32 24 21 17 16 15 12 13 14 12 8 9 5 5 8 10 14 10 12 13 9 10 10 9 9 8 14 21 22 22
9 9 7 6 5 6 7 7 7 6 5 6 10 9 10 10 8 4 4 3 4 5 5 6 5 4 5 12 10 7 7 6 12 14 14 12 10 9 9 11 13 13 11 10 9 9 17 21 24 26 27 27 29 30 30 29 30 22 14 16 13 11 12 10 11 9 9 5 7 7 11 11 11 8 11 9 9 5 8 8 8 8 14 15 21
7 6 6 7 6 5 5 6 7 7 5 6 9 9 10 10 8 4 5 4 5 5 4 5 5 4 5 7 12 11 9 10 15 14 16 12 7 8 9 11 13 12 8 7 9 12 12 11 12 12 13 17 16 14 16 26 26 22 14 14 12 11 13 13 12 13 13 6 4 7 11 11 11 9 8 11 10 5 5 8 7 6 6 7 9
Wind_Direction
77 82 77 63 57 45 34 26 40 35 57 66 73 61 52 54 50 56 49 87 140 109 68 59 62 41 51 23 17 48 31 35 21 11 12 92 77 58 64 43 31 33 33 31 29 28 24 21 17 9 3 359 358 359 3 7 1 7 344 338 350 349 343 334 209 246 265 266 268 280 297 288 314 316 328 329 336 357 7 352 360 352 350 356 354
60 86 89 91 79 62 55 39 37 31 36 40 24 64 56 30 25 33 32 22 46 38 38 72 81 70 35 24 5 26 43 45 44 18 14 41 96 74 67 54 37 32 24 27 28 24 20 18 14 10 6 2 1 359 359 357 360 0 2 6 4 2 9 25 8 349 329 296 275 280 274 281 280 296 312 307 329 317 346 332 334 335 333 338 339
47 50 72 79 75 70 59 54 45 32 42 56 42 47 55 48 32 35 38 18 21 26 32 59 91 74 67 40 360 31 30 22 47 40 32 11 22 69 74 67 61 38 33 31 32 25 20 16 14 10 8 7 1 360 359 355 353 356 2 4 7 2 2 4 8 3 352 348 331 277 267 267 283 292 300 303 294 297 300 311 319 329 338 335 331
41 58 58 65 66 65 62 64 56 35 45 62 76 71 72 61 46 52 35 22 14 19 355 46 90 102 81 35 15 55 32 23 50 43 25 23 32 21 33 54 55 47 41 38 33 26 19 16 15 12 12 9 4 0 359 356 350 355 358 359 2 358 357 356 357 354 354 352 350 338 266 256 266 271 264 289 293 293 291 294 298 300 322 328 327
52 60 64 62 61 63 61 65 68 59 54 60 79 93 88 86 58 50 41 45 40 8 351 14 41 81 91 56 51 44 34 55 57 45 35 34 37 27 29 32 37 23 45 50 37 30 23 21 21 19 18 13 8 5 3 359 358 357 357 357 357 354 350 352 352 351 348 347 349 355 346 261 266 266 293 280 282 287 293 292 308 298 299 313 314
59 62 68 64 55 50 54 56 65 68 60 55 52 46 51 58 62 62 51 52 44 11 11 16 358 16 81 83 79 45 64 77 71 52 38 36 46 42 39 30 18 13 34 43 33 30 22 22 23 24 20 16 12 10 9 7 4 2 -0 358 356 354 351 351 351 351 347 346 343 347 353 343 283 266 294 277 271 277 270 272 264 280 286 301 302
43 59 65 65 62 51 39 25 22 32 53 61 62 51 46 37 13 49 62 46 43 33 26 17 5 6 4 25 56 4 50 76 66 50 39 47 47 54 43 28 23 26 27 26 20 15 16 15 18 20 17 13 10 12 10 9 7 5 6 3 0 356 354 353 353 349 349 345 345 342 346 344 349 313 259 270 280 301 303 270 258 269 287 308 308
38 41 51 49 49 46 36 28 22 27 36 41 52 56 50 45 31 33 50 29 24 15 18 6 359 350 340 359 30 2 61 65 61 56 57 53 50 60 47 38 29 20 25 29 14 8 6 9 14 15 15 11 4 5 7 7 7 6 6 3 360 359 358 356 353 351 348 347 343 343 341 343 340 345 321 292 290 290 289 269 263 275 294 306 303
60 56 65 63 64 64 55 53 42 52 51 50 52 54 60 55 43 36 49 37 20 5 359 355 327 324 313 299 23 40 63 60 55 65 62 60 51 50 48 39 32 23 18 32 19 8 5 10 9 11 10 6 1 1 4 3 4 5 4 1 358 359 359 358 356 355 353 349 346 342 340 338 337 334 336 331 295 283 279 268 265 278 294 296 282
44 60 66 58 54 50 43 45 43 50 58 58 60 59 67 74 73 59 45 36 23 14 359 345 331 316 319 358 62 62 53 58 60 61 70 67 58 48 31 23 22 15 18 25 22 16 15 11 9 4 4 2 5 5 4 3 6 5 2 1 2 1 1 357 357 356 355 352 348 344 342 338 335 332 331 328 318 291 277 277 279 285 290 291 292
39 43 53 51 49 46 46 37 39 39 40 37 35 31 46 52 68 59 55 43 28 11 353 326 322 309 294 50 76 68 64 56 57 57 56 65 61 44 29 20 17 22 26 22 17 20 15 9 3 0 357 358 5 9 9 11 12 2 4 7 4 4 1 360 358 358 356 353 350 349 343 340 335 333 328 325 323 316 293 274 274 278 283 286 282
35 41 54 52 50 45 50 45 43 46 46 43 31 30 26 51 55 56 41 28 24 10 356 347 325 336 285 69 81 77 45 59 59 55 53 51 63 53 34 17 22 22 26 14 14 21 16 7 0 357 357 353 355 1 7 14 11 7 14 10 4 4 4 2 2 1 359 355 353 349 346 342 338 334 332 329 325 319 312 298 292 283 273 269 268
33 39 47 50 49 45 45 42 44 49 51 45 38 31 31 38 69 63 55 40 26 9 5 6 40 11 24 73 68 62 51 58 60 59 61 54 57 57 42 28 15 21 30 12 9 14 18 8 360 355 356 354 350 354 356 6 13 12 18 12 9 8 7 4 3 3 0 357 355 353 349 345 341 338 333 331 329 324 317 305 292 288 284 275 266
38 38 45 49 51 47 46 43 43 47 50 45 39 35 33 36 29 62 54 55 40 15 6 18 27 47 41 36 44 65 66 49 50 54 58 57 61 59 46 37 16 6 16 23 5 5 14 7 358 355 351 351 349 351 350 5 9 10 17 13 10 11 10 8 5 4 359 356 352 351 350 349 346 342 338 334 331 327 324 319 309 300 288 282 279
43 43 47 42 45 48 43 42 46 45 50 44 39 38 31 32 35 43 57 53 56 24 24 38 29 305 183 109 139 82 344 24 12 33 29 55 67 58 50 39 12 355 8 23 3 0 6 1 356 352 346 347 347 350 348 353 12 4 27 17 9 8 6 3 2 0 358 354 351 349 347 347 345 343 341 337 334 330 325 322 318 313 309 296 282
47 48 50 47 46 47 45 45 46 46 53 54 43 39 31 28 26 31 32 63 42 37 28 22 30 19 29 77 332 90 20 342 344 310 20 25 63 57 47 38 13 348 10 19 354 358 5 355 349 343 341 338 339 344 345 344 352 7 31 15 7 6 1 360 357 356 354 352 349 347 345 344 343 340 338 336 334 332 329 325 320 316 313 314 311
47 47 50 51 48 47 49 46 47 41 46 52 49 41 37 34 32 36 36 53 39 32 16 28 32 31 88 40 11 37 85 265 334 289 13 351 10 45 45 50 17 349 1 13 348 349 7 348 337 335 330 332 329 335 335 340 343 358 19 8 7 1 357 356 352 351 350 348 346 344 342 340 339 339 336 333 331 329 329 328 325 319 315 311 310
50 50 51 51 52 49 51 52 48 44 42 50 51 42 34 34 24 37 33 27 72 46 27 4 34 29 34 65 133 160 285 301 62 311 336 320 12 348 42 51 21 347 354 9 340 337 355 340 328 325 320 321 323 328 331 330 335 338 0 358 359 356 355 351 348 346 344 343 342 341 340 338 337 334 333 333 331 328 325 324 324 323 320 314 310
53 53 51 50 54 50 53 55 55 52 46 51 47 42 37 34 26 38 38 33 37 57 41 5 359 19 16 24 34 31 123 98 328 329 346 319 350 322 360 13 1 337 336 347 324 330 331 324 317 317 316 313 321 330 334 328 328 325 344 356 352 353 351 348 344 341 339 338 337 337 337 336 335 333 332 330 329 328 326 322 320 320 320 319 315
60 53 53 53 54 52 51 53 55 48 51 52 52 44 44 35 35 37 42 43 41 53 50 33 53 353 1 17 12 9 21 62 88 88 267 295 315 324 2 350 344 321 318 331 317 310 316 315 307 308 311 313 319 347 335 331 328 325 333 355 353 348 345 341 339 337 335 333 333 332 331 331 332 331 330 329 328 326 324 322 320 318 316 316 316
60 61 55 58 58 61 57 57 55 49 49 51 48 47 48 45 36 34 35 36 38 35 48 33 39 24 8 4 15 11 352 19 49 29 10 316 293 336 316 322 343 312 339 315 306 310 303 296 292 292 302 305 320 345 327 326 324 324 344 1 356 349 341 336 335 333 331 329 329 327 327 327 327 328 328 327 325 323 322 320 319 318 316 314 312
61 60 62 56 59 57 59 58 57 52 50 49 50 48 42 45 44 43 36 42 26 39 48 23 40 31 40 42 33 359 4 5 12 9 334 320 314 316 319 330 332 309 315 319 324 306 299 290 292 296 294 295 309 327 313 313 309 332 348 2 352 345 335 332 331 329 328 327 325 324 322 322 322 324 324 324 322 320 319 318 316 316 316 314 312
67 57 59 59 61 63 62 59 59 57 51 44 41 47 43 46 41 43 44 43 31 36 33 27 25 30 26 40 34 52 27 41 333 348 356 313 340 306 317 306 309 319 292 329 309 298 293 283 278 288 289 293 307 321 314 306 316 355 4 354 348 337 330 329 327 325 324 323 323 321 320 319 319 319 319 319 319 318 316 315 314 313 312 311 311
70 64 52 50 58 59 59 60 54 50 50 47 42 44 49 49 50 53 47 41 39 42 39 34 22 18 14 10 10 7 19 51 352 339 336 301 315 296 302 305 302 254 303 301 287 283 306 298 280 268 279 292 312 322 313 322 332 350 355 344 340 332 328 326 324 323 322 320 318 317 317 318 317 316 316 316 315 314 313 313 312 312 310 309 307
80 79 65 65 68 64 61 64 59 55 59 56 43 45 63 57 56 58 60 51 47 66 48 33 37 27 358 339 7 3 357 22 19 342 320 329 335 311 280 306 290 300 284 290 296 318 285 284 319 310 316 317 326 331 340 352 351 343 339 334 330 329 325 322 321 320 318 316 317 318 317 315 314 314 313 312 311 311 311 311 312 311 309 307 306
110 98 99 86 77 82 78 69 68 63 58 58 53 39 65 72 63 60 53 31 36 62 72 41 36 14 14 13 347 342 322 31 6 358 328 349 324 309 305 299 275 285 285 303 297 339 312 345 335 330 309 313 338 357 358 342 338 326 322 321 325 323 321 320 320 317 316 317 318 316 314 312 310 309 308 309 310 309 309 310 309 310 310 309 308
115 116 102 94 91 84 80 77 70 67 56 51 50 48 55 73 69 63 51 47 27 44 32 61 31 10 355 9 338 330 337 19 25 329 340 333 329 310 331 325 315 251 298 287 284 287 287 296 310 302 312 2 355 339 332 324 315 319 322 321 312 308 315 318 317 320 322 320 316 313 311 309 309 308 306 306 307 307 307 307 308 308 308 309 308
118 114 109 111 106 96 88 86 80 74 70 65 55 51 45 85 78 82 52 75 11 36 11 49 30 310 285 336 347 312 332 9 350 310 318 332 326 318 333 330 317 319 323 304 326 296 328 329 312 257 4 338 325 326 317 316 312 318 321 310 310 313 311 320 323 322 319 315 312 311 311 312 310 308 306 305 304 304 305 306 307 307 306 306 306
126 121 117 108 108 108 104 99 93 93 89 81 78 145 172 119 113 84 50 346 7 184 161 84 341 7 358 324 282 293 295 359 336 316 312 308 311 310 302 292 315 309 318 312 311 324 309 333 305 317 354 332 328 330 326 320 321 324 316 313 314 320 324 326 322 318 315 313 314 316 315 310 308 307 306 306 305 304 304 305 306 306 306 306 305
125 121 115 113 114 114 112 118 137 144 158 174 184 210 114 121 130 114 90 27 24 5 74 111 345 38 341 353 325 323 307 12 324 310 298 282 292 295 304 323 330 293 276 302 297 300 288 294 342 312 339 325 324 325 328 322 321 325 324 328 327 323 323 322 319 316 315 319 319 316 312 310 309 308 307 307 306 306 305 304 304 304 305 305 305
120 121 121 123 127 135 143 160 158 157 145 132 141 82 93 70 85 101 75 51 47 2 333 82 336 77 321 318 320 328 324 352 329 319 323 342 327 332 328 316 309 285 281 282 297 266 38 309 306 310 309 317 318 314 312 314 317 329 330 326 324 321 322 316 316 319 321 320 316 313 312 311 310 309 308 307 307 306 304 304 303 303 303 304 304
124 124 127 140 147 156 161 156 151 139 136 139 108 84 88 97 105 84 49 67 45 13 353 349 336 315 340 342 313 316 306 348 326 329 337 325 325 325 314 308 299 292 282 280 269 282 292 287 298 304 310 314 318 308 301 303 317 331 325 322 320 320 320 317 315 320 319 316 314 313 311 311 313 315 315 315 312 310 306 304 303 303 302 302 302
131 129 137 149 152 151 138 122 121 124 110 91 78 86 99 97 102 112 40 61 50 343 23 345 344 15 4 335 312 305 318 2 321 325 321 308 315 320 314 314 306 305 319 293 289 290 293 274 286 302 308 314 305 302 308 316 321 317 312 312 316 317 317 318 317 314 315 313 313 313 315 320 321 319 316 313 310 307 306 305 304 304 302 302 302
138 143 147 155 137 126 118 125 126 120 112 105 91 82 87 61 38 83 88 51 40 1 21 354 342 346 353 338 318 320 320 358 329 325 311 316 313 308 307 313 314 313 303 305 287 285 292 305 298 296 298 294 296 319 317 315 318 320 313 313 316 315 317 316 311 308 310 313 315 320 322 319 317 315 314 313 310 310 310 309 308 306 304 302 302
147 143 145 138 136 132 133 130 118 109 105 97 82 81 54 73 50 16 18 48 26 5 356 318 322 324 359 341 317 316 334 355 324 309 313 310 307 320 321 327 309 297 292 288 293 289 292 292 298 303 305 307 299 311 320 314 314 317 313 315 320 317 310 307 303 300 309 318 319 319 319 318 317 316 314 314 313 313 312 310 306 303 303 302 300
132 127 129 139 135 137 132 123 117 111 88 81 60 71 85 68 36 2 347 358 329 300 303 302 308 335 309 320 303 316 324 324 306 310 301 302 323 322 312 297 293 291 290 280 272 279 291 295 296 301 307 313 307 313 319 311 310 315 313 309 310 306 304 303 303 308 314 315 315 316 317 317 316 315 315 314 313 313 316 317 313 305 300 302 307
135 132 137 142 138 131 126 124 118 109 106 94 80 41 54 60 144 275 284 284 298 281 272 271 284 289 289 275 281 303 312 301 296 295 293 301 295 299 291 287 284 279 278 277 276 274 284 284 291 295 308 305 303 306 320 317 314 307 306 304 305 306 307 304 305 303 306 308 309 311 313 313 314 314 314 316 319 322 321 318 315 313 313 316 316
147 148 149 150 143 135 127 123 117 113 112 114 110 146 204 332 337 284 255 249 257 273 277 274 267 271 264 268 267 269 277 275 272 272 277 282 287 286 291 291 290 293 292 292 287 285 280 282 291 300 307 310 311 299 314 314 310 312 309 304 299 303 308 308 303 302 299 297 304 301 305 306 305 311 315 317 319 319 317 315 314 316 317 317 315
149 150 149 142 143 134 136 121 117 118 113 119 152 193 200 225 226 234 251 261 258 257 258 254 262 263 264 260 259 252 254 255 263 263 269 276 277 282 293 305 307 306 300 294 297 296 293 293 292 288 296 299 298 304 312 309 300 300 308 313 309 306 303 299 303 301 296 295 290 295 297 300 306 309 310 314 314 313 311 310 310 310 310 310 311
152 152 153 146 145 135 133 129 125 117 122 146 196 204 198 199 225 253 241 240 250 270 275 285 279 275 274 274 264 258 248 252 253 261 262 274 276 283 279 291 294 294 294 298 299 295 294 290 287 299 298 301 304 286 294 309 309 301 294 308 306 310 309 301 293 302 305 299 300 294 287 293 290 295 304 305 305 306 306 306 304 305 305 305 305
151 151 151 148 143 141 131 129 132 135 153 175 190 171 144 312 330 237 273 282 291 274 279 283 283 279 277 273 271 267 260 257 260 264 261 264 274 279 276 260 271 278 286 289 287 293 293 292 295 299 299 298 298 309 310 312 312 309 310 303 293 292 295 298 296 291 293 298 295 291 293 294 302 301 299 298 297 300 297 297 299 298 297 301 304
148 148 147 151 151 149 148 149 159 166 168 175 188 181 193 190 234 252 275 277 267 269 271 281 282 279 276 270 272 273 276 277 277 279 280 283 283 281 276 247 253 266 270 279 283 282 289 291 293 301 299 295 301 305 299 296 296 297 296 297 293 297 297 291 287 282 287 287 292 298 298 311 302 298 298 294 293 294 294 294 289 293 299 302 303
155 153 152 155 161 156 158 164 171 176 177 181 202 209 221 226 209 205 220 246 260 273 275 272 273 278 277 272 267 271 277 286 293 289 290 292 295 294 292 288 284 280 283 284 281 280 280 278 281 284 284 290 294 299 297 300 296 287 287 289 287 294 294 301 302 301 192 283 299 299 296 306 300 295 293 289 292 285 283 285 292 302 303 303 303
159 151 160 168 162 162 162 169 181 183 182 193 207 214 224 231 226 200 199 232 252 255 261 263 270 275 276 279 279 279 277 276 278 287 294 294 294 293 293 291 289 285 282 279 285 286 277 278 282 271 283 286 292 293 295 296 293 288 281 276 280 283 286 286 282 287 299 307 296 299 295 303 293 285 288 291 288 281 279 289 300 304 303 303 303
151 164 175 167 172 168 167 178 189 193 187 208 210 216 227 234 238 230 178 239 248 254 259 266 269 274 282 286 285 277 283 294 302 303 289 284 284 289 294 301 309 308 301 294 291 291 298 289 283 282 280 287 285 283 276 277 286 285 288 288 283 279 279 279 280 283 290 301 295 292 289 298 302 290 286 286 281 288 290 293 298 301 303 304 303
165 171 178 176 175 176 178 183 190 194 195 208 218 223 229 234 237 235 180 241 250 252 257 261 265 269 276 280 282 290 297 310 302 296 294 287 289 297 303 301 294 292 289 286 284 283 281 278 278 277 278 266 270 274 277 279 281 282 283 281 280 279 277 272 275 278 286 294 288 293 286 294 292 288 287 291 292 292 290 292 302 304 303 302 302
177 182 182 183 188 181 183 180 181 197 202 210 221 226 229 234 235 238 218 241 245 252 256 255 258 259 264 269 280 284 283 279 271 281 279 275 277 279 277 274 270 267 259 256 254 252 254 257 263 267 273 275 270 272 272 270 271 273 275 280 281 280 278 279 278 276 278 273 274 277 280 293 293 288 290 299 298 287 290 295 297 300 301 302 302
176 160 187 180 187 188 185 177 182 202 211 215 221 229 234 233 235 218 228 239 244 251 253 253 255 256 255 259 269 267 266 268 278 285 286 284 277 279 278 271 267 265 262 255 260 262 262 260 260 255 252 256 257 259 264 268 266 271 279 281 284 286 288 287 285 293 281 281 249 269 282 287 300 293 294 295 291 290 287 280 285 296 300 300 300
180 188 192 192 187 182 185 185 191 205 202 223 228 232 234 232 226 177 219 231 241 242 251 257 258 255 250 251 252 257 263 261 274 281 284 285 281 271 269 274 272 270 270 266 268 273 277 282 287 292 295 298 300 301 303 304 304 305 305 298 292 295 285 285 284 283 279 300 272 261 274 283 288 286 293 291 285 284 283 279 276 286 296 298 300
192 196 184 182 186 183 186 196 194 196 208 216 226 233 233 230 219 188 205 221 239 245 250 250 247 249 248 263 263 256 255 251 269 275 276 278 268 268 275 282 280 276 278 280 283 282 288 296 299 301 302 302 303 303 303 302 301 300 294 290 300 302 291 287 294 302 303 299 282 276 274 274 289 287 289 287 278 257 271 273 280 280 292 299 301
191 169 175 181 188 190 192 193 195 196 203 219 228 236 235 232 224 175 196 203 232 241 246 249 245 238 248 259 267 264 259 259 268 273 278 283 281 278 276 274 277 283 291 310 310 308 306 308 307 313 308 305 304 301 298 299 300 301 300 300 308 302 295 295 294 300 294 292 316 336 302 294 291 287 295 302 290 267 259 281 285 295 303 302 302